Back to catalog

ATLAS 5 CENTAUR DEB

AliveHEO
NORAD 44661·DEBRIS·🇺🇸 United States

Launched Oct 17, 2018 from Cape Canaveral Space Force Station

Loading…

Next Passes (next 24 hours)

TLE

FreshSource: Space-Track

Epoch: Sep 14, 2026, 13:05 UTC

1 44661U 18079X   26257.54580901 -.00000153  00000-0  00000-0 0  9990
2 44661  13.1367  54.9740 4624337 272.4019  37.4017  1.72652615 50144

Track ATLAS 5 CENTAUR DEB in real time with AllMySat

Download on the App Store